When you browse on this site, cookies collect data to enhance your experience and personalize the content and advertising you see.
Visit our Privacy Policy to learn more. By continuing to use the site, you agree to this use of cookies and data.
  • In Hungary
  • List of Countries
  • For 7 days
  • Water Temperature
  • Satellite Maps
  • Weather Map
  • News
  • Weather Widgets
  • user-avatar
    Login

    Hourly Weather Zaselische

    Today, 18 November, Sunday

    Time Temperature Precipitation Wind Pressure Humidity
    00:00 +1°C° 0.3 mm 3 mps 748 mmHg 95%
    01:00 +1°C° 0.3 mm 3 mps 748 mmHg 96%
    02:00 +2°C° 0 mm 2 mps 747 mmHg 96%
    03:00 +2°C° 0.5 mm 2 mps 747 mmHg 96%
    04:00 +1°C° 0.5 mm 3 mps 746 mmHg 96%
    05:00 +1°C° 0.5 mm 3 mps 746 mmHg 96%
    06:00 +1°C° 0.2 mm 3 mps 747 mmHg 97%
    07:00 +2°C° 0.2 mm 2 mps 747 mmHg 97%
    08:00 +1°C° 0 mm 3 mps 747 mmHg 97%
    09:00 +1°C° 0.1 mm 3 mps 747 mmHg 96%
    10:00 +1°C° 0.1 mm 3 mps 748 mmHg 95%
    11:00 +1°C° 0.1 mm 3 mps 748 mmHg 95%
    12:00 +2°C° 0.1 mm 2 mps 749 mmHg 95%
    13:00 +2°C° 0.1 mm 2 mps 749 mmHg 95%
    14:00 +2°C° 0.1 mm 2 mps 750 mmHg 95%
    15:00 +2°C° 0 mm 2 mps 750 mmHg 96%
    16:00 +2°C° 0 mm 2 mps 751 mmHg 96%
    17:00 +2°C° 0 mm 2 mps 751 mmHg 96%
    18:00 +2°C° 0 mm 2 mps 752 mmHg 96%
    19:00 +2°C° 0 mm 2 mps 752 mmHg 95%
    20:00 +1°C° 0 mm 3 mps 753 mmHg 95%
    21:00 +1°C° 0.1 mm 3 mps 753 mmHg 95%
    22:00 0°C° 0.1 mm 3 mps 754 mmHg 94%
    23:00 0°C° 0.1 mm 3 mps 754 mmHg 94%

    Tomorrow, 19 November, Monday

    Time Temperature Precipitation Wind Pressure Humidity
    00:00 0°C° 0 mm 3 mps 755 mmHg 93%
    01:00 0°C° 0 mm 3 mps 755 mmHg 93%
    02:00 0°C° 0 mm 3 mps 756 mmHg 92%
    03:00 -1°C° 0 mm 3 mps 756 mmHg 91%
    04:00 -1°C° 0 mm 3 mps 756 mmHg 90%
    05:00 -1°C° 0 mm 3 mps 756 mmHg 90%
    06:00 -2°C° 0 mm 3 mps 757 mmHg 90%
    07:00 -2°C° 0 mm 3 mps 757 mmHg 90%
    08:00 -2°C° 0 mm 2 mps 758 mmHg 90%
    09:00 -2°C° 0 mm 2 mps 758 mmHg 89%
    10:00 -2°C° 0 mm 2 mps 759 mmHg 88%
    11:00 -2°C° 0 mm 2 mps 759 mmHg 86%
    12:00 -2°C° 0 mm 2 mps 759 mmHg 86%
    13:00 -3°C° 0 mm 2 mps 759 mmHg 86%
    14:00 -3°C° 0 mm 2 mps 759 mmHg 86%
    15:00 -3°C° 0 mm 2 mps 759 mmHg 87%
    16:00 -3°C° 0 mm 2 mps 759 mmHg 88%
    17:00 -4°C° 0 mm 2 mps 759 mmHg 89%
    18:00 -4°C° 0 mm 2 mps 759 mmHg 89%
    19:00 -2°C° 0 mm 1 mps 759 mmHg 89%
    20:00 -2°C° 0 mm 1 mps 759 mmHg 89%
    21:00 -3°C° 0 mm 1 mps 759 mmHg 89%
    22:00 -3°C° 0 mm 1 mps 759 mmHg 90%
    23:00 -3°C° 0 mm 1 mps 759 mmHg 90%

    Day after tomorrow, 20 November, Tuesday

    Time Temperature Precipitation Wind Pressure Humidity
    00:00 -3°C° 0 mm 1 mps 759 mmHg 90%
    01:00 -3°C° 0 mm 1 mps 759 mmHg 91%
    02:00 -3°C° 0 mm 1 mps 759 mmHg 91%
    03:00 -3°C° 0 mm 1 mps 759 mmHg 91%
    04:00 -4°C° 0 mm 1 mps 758 mmHg 91%
    05:00 -4°C° 0 mm 1 mps 758 mmHg 91%
    06:00 -4°C° 0 mm 1 mps 758 mmHg 91%
    07:00 -4°C° 0 mm 1 mps 757 mmHg 91%
    08:00 -4°C° 0 mm 1 mps 757 mmHg 91%
    09:00 -3°C° 0 mm 1 mps 757 mmHg 89%
    10:00 -2°C° 0 mm 1 mps 756 mmHg 86%
    11:00 -4°C° 0 mm 2 mps 756 mmHg 83%
    12:00 -4°C° 0 mm 2 mps 756 mmHg 83%
    13:00 -3°C° 0 mm 2 mps 755 mmHg 83%
    14:00 -3°C° 0 mm 2 mps 755 mmHg 84%
    15:00 -4°C° 0 mm 2 mps 755 mmHg 86%
    16:00 -4°C° 0 mm 2 mps 754 mmHg 88%
    17:00 -5°C° 0 mm 2 mps 754 mmHg 90%
    18:00 -5°C° 0 mm 2 mps 754 mmHg 89%
    19:00 -5°C° 0 mm 2 mps 753 mmHg 88%
    20:00 -5°C° 0 mm 2 mps 753 mmHg 88%
    21:00 -4°C° 0 mm 2 mps 753 mmHg 88%
    22:00 -4°C° 0 mm 2 mps 753 mmHg 87%
    23:00 -4°C° 0 mm 2 mps 753 mmHg 87%

    21 November, Wednesday

    Time Temperature Precipitation Wind Pressure Humidity
    00:00 -3°C° 0 mm 2 mps 753 mmHg 88%
    01:00 -3°C° 0 mm 2 mps 753 mmHg 89%
    02:00 -3°C° 0 mm 2 mps 754 mmHg 89%
    03:00 -3°C° 0 mm 2 mps 754 mmHg 90%
    04:00 -3°C° 0 mm 2 mps 754 mmHg 91%
    05:00 -3°C° 0 mm 2 mps 754 mmHg 91%
    06:00 -2°C° 0 mm 2 mps 754 mmHg 91%
    07:00 -2°C° 0 mm 2 mps 754 mmHg 90%
    08:00 -2°C° 0 mm 2 mps 755 mmHg 89%
    09:00 -2°C° 0 mm 2 mps 755 mmHg 87%
    10:00 -2°C° 0 mm 2 mps 755 mmHg 85%
    11:00 -1°C° 0 mm 2 mps 755 mmHg 83%
    12:00 -2°C° 0 mm 2 mps 755 mmHg 85%
    13:00 -2°C° 0 mm 2 mps 755 mmHg 86%
    14:00 0°C° 0 mm 1 mps 755 mmHg 87%
    15:00 -1°C° 0 mm 1 mps 755 mmHg 90%
    16:00 -4°C° 0 mm 2 mps 755 mmHg 92%
    17:00 -4°C° 0 mm 2 mps 755 mmHg 94%
    18:00 -5°C° 0 mm 2 mps 755 mmHg 94%
    19:00 -5°C° 0 mm 2 mps 755 mmHg 94%
    20:00 -5°C° 0 mm 2 mps 755 mmHg 94%
    21:00 -5°C° 0 mm 2 mps 754 mmHg 93%
    22:00 -6°C° 0 mm 3 mps 754 mmHg 93%
    23:00 -6°C° 0 mm 3 mps 753 mmHg 92%

    22 November, Thursday

    Time Temperature Precipitation Wind Pressure Humidity
    00:00 -5°C° 0 mm 3 mps 753 mmHg 91%
    01:00 -5°C° 0 mm 4 mps 753 mmHg 90%
    02:00 -5°C° 0 mm 4 mps 752 mmHg 90%
    03:00 -5°C° 0 mm 4 mps 752 mmHg 88%
    04:00 -5°C° 0 mm 4 mps 752 mmHg 85%
    05:00 -5°C° 0 mm 4 mps 751 mmHg 83%
    06:00 -5°C° 0 mm 4 mps 751 mmHg 84%
    07:00 -5°C° 0 mm 4 mps 751 mmHg 85%
    08:00 -5°C° 0 mm 4 mps 751 mmHg 86%
    09:00 -4°C° 0 mm 4 mps 751 mmHg 85%
    10:00 -4°C° 0 mm 4 mps 751 mmHg 84%
    11:00 -3°C° 0 mm 4 mps 751 mmHg 83%
    12:00 -3°C° 0 mm 4 mps 751 mmHg 84%
    13:00 -1°C° 0 mm 3 mps 752 mmHg 85%
    14:00 -1°C° 0 mm 3 mps 752 mmHg 86%
    15:00 -1°C° 0 mm 3 mps 752 mmHg 88%
    16:00 -2°C° 0 mm 3 mps 752 mmHg 89%
    17:00 -2°C° 0 mm 3 mps 752 mmHg 90%
    18:00 -2°C° 0 mm 3 mps 752 mmHg 91%
    19:00 -2°C° 0 mm 3 mps 753 mmHg 91%
    20:00 -2°C° 0 mm 2 mps 753 mmHg 91%
    21:00 -2°C° 0 mm 2 mps 753 mmHg 92%
    22:00 -2°C° 0 mm 2 mps 753 mmHg 93%
    23:00 -2°C° 0 mm 2 mps 754 mmHg 94%

    23 November, Friday

    Time Temperature Precipitation Wind Pressure Humidity
    00:00 -2°C° 0 mm 2 mps 754 mmHg 94%
    01:00 -2°C° 0 mm 2 mps 754 mmHg 94%
    02:00 -3°C° 0 mm 2 mps 754 mmHg 94%
    03:00 -3°C° 0 mm 2 mps 754 mmHg 94%
    04:00 -2°C° 0 mm 2 mps 754 mmHg 94%
    05:00 -2°C° 0 mm 2 mps 754 mmHg 94%
    06:00 -2°C° 0 mm 3 mps 754 mmHg 94%
    07:00 -2°C° 0 mm 3 mps 754 mmHg 94%
    08:00 -1°C° 0 mm 3 mps 754 mmHg 93%
    09:00 -1°C° 0 mm 3 mps 754 mmHg 92%
    10:00 -1°C° 0 mm 3 mps 753 mmHg 92%
    11:00 -2°C° 0 mm 4 mps 753 mmHg 91%
    12:00 -2°C° 0 mm 4 mps 752 mmHg 90%
    13:00 -2°C° 0 mm 4 mps 752 mmHg 88%
    14:00 -2°C° 0 mm 5 mps 751 mmHg 87%
    15:00 -2°C° 0 mm 5 mps 751 mmHg 87%
    16:00 -4°C° 0 mm 5 mps 750 mmHg 86%
    17:00 -4°C° 0 mm 5 mps 749 mmHg 85%
    18:00 -4°C° 0.1 mm 5 mps 749 mmHg 85%
    19:00 -4°C° 0.1 mm 6 mps 748 mmHg 84%
    20:00 -4°C° 0.1 mm 6 mps 748 mmHg 83%
    21:00 -4°C° 0.1 mm 5 mps 748 mmHg 83%
    22:00 -4°C° 0.1 mm 5 mps 747 mmHg 82%
    23:00 -4°C° 0.1 mm 5 mps 747 mmHg 82%
    Show more